Precipitable_Water
0.33 0.30 0.28 0.26 0.24 0.25 0.25 0.25 0.25 0.24 0.28 0.23 0.24 0.28 0.13 0.12 0.10 0.16 0.18 0.21 0.18 0.13 0.10 0.13 0.13 0.12 0.15 0.19 0.17 0.18 0.16 0.16 0.18 0.16 0.18 0.16 0.19 0.17 0.16 0.16 0.15 0.16 0.15 0.15 0.16 0.16 0.14 0.15 0.14 0.15 0.16 0.16 0.20 0.23 0.24 0.25 0.22 0.23 0.19 0.21 0.21 0.24 0.16 0.14 0.15 0.17 0.19 0.20 0.21 0.22 0.22 0.21 0.20 0.20 0.20 0.19 0.17 0.17 0.16 0.15 0.15 0.13 0.13 0.12 0.12 0.10 0.12
0.29 0.28 0.26 0.25 0.26 0.25 0.26 0.25 0.26 0.27 0.31 0.26 0.24 0.15 0.13 0.13 0.12 0.13 0.17 0.20 0.18 0.12 0.07 0.08 0.10 0.12 0.14 0.15 0.14 0.19 0.16 0.15 0.15 0.15 0.17 0.15 0.16 0.15 0.16 0.18 0.18 0.15 0.19 0.18 0.15 0.17 0.12 0.16 0.16 0.15 0.17 0.16 0.23 0.24 0.24 0.26 0.21 0.20 0.19 0.18 0.22 0.16 0.17 0.16 0.13 0.13 0.14 0.16 0.18 0.18 0.20 0.21 0.19 0.19 0.20 0.20 0.19 0.19 0.18 0.17 0.17 0.13 0.14 0.14 0.12 0.09 0.12
0.28 0.27 0.26 0.26 0.27 0.26 0.26 0.27 0.26 0.29 0.30 0.27 0.23 0.13 0.13 0.13 0.13 0.13 0.14 0.18 0.15 0.11 0.10 0.09 0.10 0.11 0.11 0.11 0.11 0.12 0.14 0.18 0.17 0.15 0.16 0.19 0.18 0.16 0.16 0.17 0.19 0.17 0.20 0.18 0.18 0.19 0.16 0.14 0.17 0.17 0.17 0.17 0.24 0.23 0.25 0.26 0.22 0.25 0.26 0.25 0.27 0.18 0.17 0.16 0.12 0.11 0.10 0.10 0.11 0.13 0.15 0.18 0.20 0.20 0.20 0.20 0.19 0.18 0.17 0.14 0.15 0.13 0.15 0.15 0.13 0.11 0.13
0.27 0.26 0.27 0.27 0.27 0.28 0.27 0.27 0.26 0.28 0.31 0.30 0.22 0.16 0.14 0.11 0.07 0.10 0.11 0.13 0.13 0.13 0.15 0.12 0.10 0.10 0.10 0.10 0.11 0.12 0.12 0.15 0.18 0.19 0.18 0.20 0.19 0.19 0.18 0.20 0.20 0.17 0.18 0.16 0.16 0.16 0.19 0.16 0.15 0.16 0.16 0.18 0.21 0.22 0.25 0.25 0.25 0.26 0.26 0.25 0.24 0.19 0.19 0.18 0.17 0.15 0.15 0.16 0.18 0.20 0.20 0.19 0.18 0.19 0.20 0.20 0.20 0.19 0.18 0.17 0.15 0.13 0.15 0.14 0.15 0.14 0.14
0.27 0.28 0.29 0.29 0.29 0.28 0.28 0.26 0.26 0.30 0.28 0.26 0.19 0.15 0.12 0.11 0.08 0.08 0.07 0.10 0.11 0.10 0.12 0.10 0.11 0.09 0.11 0.08 0.10 0.10 0.11 0.13 0.16 0.22 0.14 0.20 0.19 0.19 0.19 0.18 0.16 0.16 0.16 0.16 0.16 0.17 0.16 0.18 0.17 0.16 0.16 0.18 0.19 0.23 0.25 0.26 0.26 0.27 0.26 0.25 0.22 0.19 0.17 0.18 0.19 0.18 0.19 0.20 0.19 0.20 0.20 0.19 0.19 0.19 0.19 0.20 0.20 0.19 0.18 0.16 0.15 0.18 0.15 0.12 0.16 0.17 0.14
0.29 0.29 0.29 0.28 0.27 0.27 0.25 0.26 0.25 0.25 0.29 0.27 0.21 0.12 0.13 0.08 0.11 0.11 0.13 0.09 0.06 0.08 0.08 0.11 0.10 0.11 0.11 0.09 0.11 0.10 0.11 0.12 0.11 0.17 0.19 0.21 0.23 0.17 0.19 0.18 0.18 0.18 0.17 0.17 0.14 0.16 0.16 0.17 0.15 0.17 0.18 0.18 0.19 0.19 0.25 0.24 0.26 0.26 0.24 0.25 0.21 0.18 0.16 0.18 0.19 0.19 0.20 0.21 0.20 0.21 0.20 0.20 0.20 0.20 0.20 0.19 0.20 0.19 0.17 0.17 0.18 0.18 0.16 0.14 0.16 0.17 0.15
0.28 0.27 0.27 0.27 0.26 0.26 0.25 0.24 0.25 0.25 0.23 0.26 0.20 0.11 0.13 0.13 0.12 0.12 0.14 0.08 0.09 0.10 0.10 0.11 0.10 0.09 0.10 0.10 0.11 0.09 0.10 0.10 0.12 0.13 0.15 0.17 0.18 0.20 0.15 0.16 0.18 0.19 0.19 0.17 0.15 0.16 0.14 0.14 0.17 0.16 0.17 0.17 0.17 0.17 0.20 0.25 0.26 0.25 0.23 0.23 0.22 0.20 0.17 0.19 0.20 0.19 0.20 0.20 0.21 0.21 0.20 0.20 0.20 0.20 0.20 0.20 0.20 0.19 0.19 0.19 0.19 0.19 0.18 0.18 0.17 0.17 0.16
0.26 0.26 0.25 0.25 0.25 0.25 0.25 0.24 0.24 0.24 0.24 0.23 0.16 0.13 0.10 0.09 0.07 0.07 0.12 0.12 0.10 0.11 0.10 0.10 0.10 0.08 0.10 0.08 0.09 0.10 0.10 0.10 0.12 0.15 0.15 0.13 0.16 0.21 0.17 0.17 0.18 0.19 0.19 0.19 0.16 0.17 0.17 0.17 0.15 0.18 0.17 0.17 0.18 0.17 0.18 0.19 0.23 0.24 0.21 0.22 0.23 0.19 0.17 0.20 0.19 0.18 0.19 0.20 0.21 0.21 0.20 0.19 0.18 0.20 0.20 0.20 0.20 0.20 0.20 0.20 0.20 0.20 0.19 0.19 0.18 0.17 0.16
0.25 0.25 0.25 0.25 0.25 0.24 0.24 0.24 0.25 0.24 0.24 0.16 0.13 0.12 0.13 0.12 0.13 0.11 0.08 0.07 0.09 0.11 0.10 0.09 0.08 0.08 0.09 0.08 0.09 0.10 0.10 0.10 0.13 0.13 0.17 0.14 0.15 0.18 0.17 0.19 0.19 0.21 0.20 0.19 0.18 0.20 0.20 0.20 0.19 0.20 0.19 0.16 0.19 0.18 0.18 0.22 0.20 0.22 0.21 0.22 0.21 0.20 0.18 0.20 0.19 0.17 0.17 0.19 0.19 0.20 0.20 0.19 0.19 0.19 0.19 0.20 0.20 0.19 0.20 0.20 0.21 0.20 0.18 0.18 0.18 0.16 0.16
0.25 0.24 0.24 0.23 0.23 0.24 0.24 0.25 0.26 0.25 0.27 0.17 0.14 0.10 0.15 0.14 0.14 0.13 0.09 0.06 0.10 0.08 0.09 0.09 0.08 0.06 0.08 0.09 0.10 0.09 0.10 0.11 0.13 0.12 0.16 0.18 0.21 0.20 0.20 0.20 0.20 0.19 0.19 0.18 0.20 0.22 0.23 0.22 0.23 0.23 0.23 0.24 0.22 0.23 0.23 0.23 0.22 0.21 0.21 0.23 0.20 0.20 0.19 0.17 0.17 0.16 0.16 0.19 0.20 0.19 0.19 0.18 0.17 0.18 0.20 0.20 0.20 0.21 0.22 0.22 0.22 0.22 0.21 0.19 0.17 0.16 0.19
0.23 0.22 0.21 0.22 0.22 0.23 0.24 0.25 0.26 0.27 0.23 0.15 0.12 0.11 0.12 0.10 0.09 0.10 0.09 0.06 0.08 0.08 0.08 0.07 0.07 0.08 0.10 0.12 0.10 0.13 0.11 0.12 0.13 0.11 0.12 0.18 0.20 0.24 0.22 0.21 0.19 0.18 0.18 0.21 0.26 0.27 0.27 0.27 0.27 0.27 0.26 0.25 0.24 0.24 0.25 0.25 0.25 0.24 0.23 0.21 0.21 0.21 0.20 0.18 0.19 0.15 0.16 0.19 0.19 0.20 0.17 0.14 0.15 0.21 0.22 0.22 0.21 0.21 0.21 0.21 0.22 0.23 0.23 0.20 0.21 0.20 0.21
0.20 0.20 0.20 0.20 0.21 0.22 0.22 0.23 0.24 0.24 0.22 0.20 0.17 0.13 0.13 0.14 0.12 0.10 0.07 0.05 0.06 0.09 0.07 0.06 0.07 0.09 0.09 0.11 0.11 0.11 0.11 0.12 0.12 0.15 0.13 0.16 0.21 0.24 0.23 0.22 0.21 0.17 0.24 0.30 0.30 0.29 0.29 0.30 0.28 0.28 0.27 0.26 0.25 0.26 0.25 0.24 0.25 0.27 0.27 0.23 0.21 0.20 0.20 0.19 0.20 0.17 0.16 0.18 0.19 0.16 0.13 0.14 0.21 0.23 0.24 0.24 0.23 0.23 0.23 0.23 0.24 0.23 0.23 0.23 0.22 0.21 0.21
0.20 0.19 0.20 0.20 0.20 0.20 0.21 0.22 0.22 0.21 0.22 0.21 0.18 0.11 0.14 0.16 0.10 0.09 0.08 0.06 0.05 0.07 0.06 0.07 0.10 0.11 0.11 0.12 0.11 0.12 0.13 0.15 0.16 0.17 0.17 0.17 0.19 0.22 0.24 0.22 0.21 0.22 0.30 0.28 0.28 0.26 0.21 0.19 0.20 0.21 0.20 0.22 0.23 0.24 0.24 0.24 0.24 0.27 0.27 0.27 0.22 0.20 0.19 0.19 0.19 0.19 0.18 0.17 0.17 0.13 0.14 0.21 0.23 0.23 0.24 0.25 0.25 0.24 0.23 0.22 0.24 0.24 0.24 0.23 0.22 0.22 0.22
0.20 0.20 0.19 0.20 0.19 0.20 0.20 0.21 0.20 0.21 0.22 0.21 0.17 0.14 0.14 0.14 0.09 0.08 0.08 0.06 0.06 0.08 0.08 0.09 0.10 0.09 0.10 0.11 0.11 0.12 0.14 0.14 0.16 0.17 0.15 0.19 0.19 0.20 0.25 0.27 0.29 0.30 0.31 0.30 0.25 0.22 0.18 0.18 0.15 0.16 0.16 0.17 0.18 0.18 0.20 0.23 0.24 0.25 0.25 0.26 0.26 0.23 0.21 0.20 0.18 0.19 0.15 0.16 0.17 0.17 0.21 0.20 0.21 0.21 0.22 0.24 0.22 0.23 0.22 0.19 0.22 0.25 0.25 0.25 0.23 0.23 0.23
0.20 0.20 0.20 0.19 0.19 0.19 0.20 0.20 0.20 0.20 0.21 0.21 0.18 0.15 0.15 0.15 0.12 0.10 0.10 0.08 0.06 0.08 0.09 0.06 0.07 0.09 0.10 0.10 0.11 0.11 0.11 0.12 0.13 0.13 0.17 0.21 0.20 0.24 0.27 0.30 0.33 0.32 0.31 0.25 0.20 0.20 0.18 0.17 0.14 0.13 0.14 0.14 0.12 0.14 0.19 0.18 0.24 0.26 0.26 0.26 0.26 0.25 0.21 0.21 0.19 0.18 0.20 0.16 0.15 0.16 0.16 0.15 0.18 0.22 0.25 0.27 0.26 0.26 0.26 0.24 0.22 0.26 0.26 0.27 0.25 0.24 0.23
0.20 0.20 0.20 0.20 0.20 0.20 0.20 0.20 0.21 0.21 0.20 0.20 0.17 0.15 0.15 0.17 0.16 0.13 0.10 0.08 0.07 0.05 0.07 0.09 0.11 0.10 0.09 0.10 0.11 0.10 0.10 0.11 0.12 0.14 0.15 0.17 0.19 0.24 0.28 0.32 0.33 0.32 0.28 0.23 0.21 0.19 0.18 0.15 0.14 0.13 0.12 0.13 0.16 0.16 0.15 0.18 0.19 0.24 0.25 0.25 0.24 0.24 0.24 0.23 0.20 0.18 0.19 0.18 0.16 0.16 0.15 0.17 0.22 0.23 0.25 0.27 0.27 0.27 0.27 0.23 0.20 0.25 0.27 0.27 0.27 0.25 0.24
0.18 0.19 0.19 0.20 0.20 0.21 0.21 0.21 0.21 0.20 0.20 0.20 0.15 0.15 0.14 0.19 0.16 0.12 0.10 0.09 0.08 0.05 0.13 0.12 0.13 0.12 0.10 0.09 0.12 0.11 0.12 0.11 0.13 0.12 0.12 0.13 0.17 0.21 0.25 0.30 0.32 0.30 0.26 0.21 0.20 0.18 0.16 0.15 0.15 0.15 0.15 0.17 0.15 0.15 0.18 0.18 0.17 0.19 0.22 0.23 0.23 0.22 0.22 0.21 0.19 0.18 0.19 0.18 0.17 0.17 0.20 0.20 0.23 0.26 0.26 0.27 0.28 0.28 0.26 0.18 0.18 0.26 0.28 0.29 0.28 0.26 0.25
0.17 0.18 0.19 0.19 0.19 0.19 0.20 0.20 0.21 0.23 0.21 0.22 0.17 0.15 0.15 0.20 0.20 0.15 0.11 0.09 0.07 0.08 0.13 0.15 0.12 0.09 0.08 0.09 0.10 0.13 0.14 0.14 0.14 0.15 0.14 0.16 0.18 0.19 0.22 0.25 0.23 0.29 0.28 0.19 0.19 0.17 0.16 0.16 0.14 0.14 0.14 0.17 0.18 0.18 0.14 0.18 0.17 0.18 0.18 0.20 0.20 0.20 0.20 0.20 0.18 0.19 0.19 0.19 0.18 0.19 0.20 0.24 0.26 0.27 0.28 0.28 0.29 0.27 0.20 0.18 0.23 0.28 0.29 0.30 0.29 0.28 0.26
0.17 0.18 0.18 0.19 0.20 0.21 0.22 0.22 0.23 0.22 0.21 0.20 0.19 0.17 0.17 0.20 0.20 0.18 0.13 0.11 0.09 0.07 0.15 0.19 0.19 0.14 0.16 0.18 0.14 0.14 0.15 0.15 0.15 0.13 0.13 0.14 0.16 0.21 0.23 0.24 0.26 0.21 0.24 0.19 0.19 0.17 0.16 0.16 0.18 0.17 0.15 0.16 0.18 0.15 0.19 0.17 0.17 0.20 0.20 0.19 0.19 0.20 0.20 0.20 0.20 0.18 0.18 0.19 0.18 0.18 0.21 0.25 0.27 0.28 0.29 0.29 0.26 0.20 0.20 0.26 0.31 0.30 0.29 0.30 0.30 0.28 0.27
0.19 0.19 0.19 0.19 0.19 0.19 0.20 0.20 0.19 0.19 0.20 0.22 0.19 0.15 0.18 0.21 0.21 0.20 0.13 0.10 0.12 0.11 0.16 0.17 0.17 0.13 0.19 0.15 0.12 0.12 0.14 0.15 0.16 0.14 0.13 0.12 0.20 0.21 0.20 0.18 0.23 0.23 0.21 0.21 0.17 0.18 0.16 0.15 0.16 0.18 0.16 0.16 0.17 0.20 0.18 0.20 0.22 0.20 0.20 0.21 0.20 0.20 0.19 0.18 0.18 0.19 0.19 0.19 0.18 0.17 0.16 0.23 0.29 0.28 0.28 0.29 0.23 0.24 0.28 0.29 0.31 0.32 0.31 0.31 0.30 0.29 0.28
0.22 0.21 0.21 0.20 0.20 0.20 0.20 0.19 0.20 0.20 0.20 0.21 0.17 0.14 0.14 0.20 0.21 0.21 0.20 0.15 0.12 0.10 0.13 0.22 0.22 0.19 0.20 0.18 0.19 0.19 0.15 0.13 0.15 0.14 0.15 0.16 0.21 0.19 0.14 0.14 0.18 0.20 0.18 0.19 0.16 0.16 0.17 0.16 0.18 0.17 0.18 0.18 0.19 0.19 0.17 0.18 0.20 0.23 0.22 0.21 0.21 0.24 0.19 0.18 0.19 0.21 0.17 0.18 0.17 0.19 0.24 0.27 0.29 0.28 0.24 0.27 0.28 0.30 0.30 0.30 0.29 0.32 0.32 0.31 0.31 0.30 0.29
0.25 0.25 0.25 0.26 0.26 0.27 0.26 0.25 0.25 0.23 0.23 0.21 0.20 0.16 0.14 0.18 0.21 0.21 0.21 0.18 0.13 0.12 0.17 0.22 0.25 0.22 0.24 0.25 0.24 0.24 0.22 0.21 0.23 0.23 0.17 0.16 0.21 0.19 0.19 0.20 0.21 0.21 0.21 0.22 0.19 0.19 0.20 0.19 0.20 0.18 0.17 0.18 0.20 0.18 0.19 0.18 0.17 0.21 0.24 0.23 0.18 0.24 0.21 0.22 0.19 0.23 0.21 0.20 0.23 0.27 0.29 0.29 0.29 0.29 0.28 0.29 0.30 0.31 0.31 0.31 0.31 0.31 0.32 0.33 0.31 0.30 0.30
0.28 0.29 0.29 0.29 0.29 0.28 0.28 0.27 0.27 0.26 0.26 0.25 0.23 0.20 0.16 0.18 0.18 0.21 0.22 0.14 0.19 0.21 0.24 0.23 0.25 0.25 0.27 0.27 0.30 0.30 0.29 0.30 0.28 0.26 0.25 0.18 0.18 0.21 0.20 0.20 0.21 0.25 0.24 0.24 0.20 0.20 0.20 0.20 0.18 0.20 0.18 0.19 0.18 0.18 0.20 0.20 0.19 0.21 0.20 0.24 0.23 0.26 0.25 0.25 0.23 0.22 0.25 0.26 0.27 0.28 0.28 0.28 0.28 0.29 0.30 0.29 0.30 0.31 0.32 0.31 0.31 0.33 0.33 0.33 0.31 0.31 0.30
0.31 0.31 0.31 0.30 0.29 0.28 0.28 0.28 0.28 0.27 0.26 0.26 0.25 0.22 0.21 0.22 0.21 0.20 0.18 0.16 0.13 0.12 0.16 0.21 0.17 0.14 0.17 0.19 0.25 0.30 0.30 0.29 0.29 0.30 0.31 0.27 0.17 0.19 0.23 0.25 0.27 0.26 0.25 0.25 0.27 0.22 0.21 0.21 0.21 0.21 0.17 0.20 0.21 0.19 0.18 0.18 0.20 0.22 0.21 0.22 0.23 0.24 0.25 0.23 0.21 0.23 0.21 0.19 0.26 0.26 0.26 0.27 0.28 0.28 0.29 0.30 0.30 0.30 0.31 0.31 0.32 0.33 0.33 0.33 0.32 0.31 0.30
0.33 0.33 0.33 0.32 0.31 0.30 0.29 0.29 0.28 0.27 0.27 0.26 0.26 0.26 0.25 0.23 0.24 0.22 0.17 0.12 0.12 0.11 0.09 0.13 0.16 0.22 0.25 0.29 0.30 0.27 0.29 0.31 0.33 0.30 0.30 0.29 0.26 0.20 0.19 0.26 0.29 0.24 0.24 0.27 0.27 0.25 0.24 0.20 0.20 0.20 0.17 0.21 0.21 0.18 0.23 0.20 0.20 0.23 0.20 0.22 0.22 0.21 0.26 0.22 0.22 0.22 0.21 0.21 0.25 0.26 0.26 0.27 0.28 0.28 0.27 0.28 0.29 0.30 0.31 0.32 0.33 0.33 0.33 0.32 0.32 0.32 0.30
0.34 0.34 0.33 0.33 0.32 0.32 0.31 0.30 0.29 0.29 0.28 0.27 0.26 0.23 0.22 0.21 0.25 0.26 0.22 0.20 0.18 0.15 0.11 0.11 0.15 0.26 0.29 0.25 0.23 0.26 0.32 0.31 0.30 0.30 0.30 0.30 0.31 0.31 0.28 0.30 0.28 0.31 0.28 0.28 0.26 0.23 0.22 0.21 0.21 0.21 0.19 0.20 0.24 0.20 0.21 0.23 0.22 0.25 0.22 0.22 0.24 0.24 0.25 0.20 0.23 0.21 0.23 0.25 0.26 0.25 0.25 0.26 0.27 0.28 0.28 0.29 0.29 0.29 0.30 0.32 0.32 0.32 0.31 0.30 0.31 0.31 0.30
0.34 0.34 0.33 0.33 0.33 0.32 0.32 0.31 0.30 0.29 0.28 0.27 0.26 0.25 0.24 0.25 0.27 0.23 0.20 0.19 0.16 0.13 0.14 0.12 0.16 0.20 0.24 0.21 0.27 0.30 0.31 0.31 0.30 0.30 0.30 0.31 0.32 0.33 0.32 0.30 0.27 0.27 0.26 0.25 0.26 0.24 0.24 0.22 0.21 0.20 0.21 0.21 0.24 0.23 0.24 0.23 0.23 0.22 0.22 0.24 0.26 0.24 0.22 0.24 0.23 0.20 0.20 0.22 0.23 0.24 0.21 0.21 0.25 0.26 0.27 0.28 0.29 0.29 0.30 0.31 0.31 0.32 0.30 0.29 0.29 0.30 0.29
0.35 0.35 0.34 0.34 0.33 0.33 0.32 0.30 0.30 0.29 0.27 0.27 0.26 0.25 0.26 0.24 0.25 0.27 0.27 0.24 0.17 0.14 0.13 0.14 0.15 0.19 0.26 0.21 0.27 0.29 0.29 0.30 0.29 0.29 0.30 0.32 0.34 0.33 0.31 0.29 0.28 0.26 0.25 0.24 0.22 0.22 0.22 0.20 0.20 0.23 0.24 0.25 0.23 0.22 0.26 0.25 0.26 0.24 0.23 0.23 0.25 0.23 0.24 0.23 0.21 0.21 0.20 0.25 0.25 0.26 0.25 0.24 0.26 0.26 0.28 0.29 0.29 0.29 0.29 0.29 0.30 0.31 0.30 0.29 0.29 0.29 0.28
0.35 0.34 0.34 0.34 0.34 0.33 0.33 0.32 0.31 0.29 0.27 0.26 0.24 0.23 0.23 0.25 0.26 0.26 0.25 0.26 0.23 0.20 0.19 0.19 0.21 0.19 0.15 0.18 0.27 0.27 0.29 0.29 0.30 0.30 0.31 0.32 0.33 0.34 0.32 0.31 0.28 0.28 0.27 0.26 0.25 0.24 0.23 0.23 0.25 0.23 0.23 0.27 0.24 0.22 0.23 0.21 0.21 0.20 0.22 0.25 0.26 0.27 0.27 0.26 0.26 0.25 0.25 0.27 0.26 0.26 0.25 0.24 0.25 0.27 0.27 0.28 0.29 0.29 0.28 0.29 0.31 0.31 0.29 0.28 0.28 0.28 0.27
0.34 0.34 0.33 0.33 0.33 0.33 0.32 0.31 0.31 0.30 0.28 0.26 0.24 0.20 0.17 0.19 0.24 0.26 0.27 0.25 0.24 0.22 0.17 0.16 0.14 0.16 0.26 0.25 0.22 0.26 0.28 0.32 0.32 0.32 0.32 0.32 0.31 0.31 0.32 0.30 0.30 0.31 0.29 0.26 0.26 0.22 0.25 0.24 0.26 0.28 0.28 0.31 0.24 0.24 0.21 0.22 0.20 0.21 0.25 0.26 0.27 0.27 0.27 0.28 0.28 0.25 0.24 0.27 0.27 0.27 0.26 0.26 0.27 0.26 0.27 0.28 0.29 0.29 0.28 0.29 0.30 0.31 0.29 0.28 0.27 0.27 0.27
0.34 0.34 0.33 0.33 0.32 0.31 0.31 0.30 0.31 0.31 0.28 0.24 0.21 0.17 0.16 0.14 0.19 0.28 0.29 0.27 0.27 0.22 0.19 0.18 0.16 0.21 0.21 0.27 0.28 0.28 0.30 0.32 0.32 0.31 0.32 0.32 0.31 0.32 0.34 0.33 0.33 0.32 0.27 0.28 0.27 0.26 0.27 0.24 0.25 0.26 0.30 0.30 0.27 0.23 0.22 0.21 0.19 0.20 0.25 0.26 0.26 0.26 0.27 0.27 0.28 0.28 0.27 0.27 0.27 0.26 0.26 0.26 0.26 0.26 0.26 0.27 0.28 0.29 0.28 0.29 0.30 0.31 0.29 0.27 0.27 0.27 0.26
0.35 0.34 0.34 0.33 0.32 0.31 0.30 0.29 0.29 0.29 0.26 0.23 0.20 0.18 0.18 0.19 0.23 0.28 0.28 0.26 0.25 0.20 0.18 0.17 0.18 0.20 0.21 0.25 0.29 0.33 0.33 0.33 0.33 0.32 0.31 0.32 0.30 0.33 0.32 0.32 0.30 0.33 0.30 0.27 0.28 0.27 0.26 0.27 0.26 0.27 0.27 0.32 0.29 0.25 0.24 0.22 0.20 0.21 0.26 0.26 0.27 0.27 0.27 0.27 0.27 0.27 0.27 0.27 0.26 0.23 0.22 0.24 0.25 0.23 0.23 0.26 0.27 0.28 0.29 0.29 0.30 0.31 0.29 0.28 0.27 0.27 0.26
0.35 0.35 0.34 0.33 0.33 0.32 0.31 0.30 0.29 0.27 0.24 0.26 0.29 0.29 0.29 0.29 0.28 0.28 0.29 0.28 0.24 0.22 0.24 0.22 0.21 0.22 0.22 0.24 0.29 0.31 0.34 0.32 0.30 0.30 0.28 0.32 0.29 0.31 0.29 0.32 0.32 0.31 0.36 0.29 0.26 0.24 0.28 0.28 0.29 0.27 0.29 0.32 0.27 0.25 0.23 0.21 0.22 0.26 0.27 0.27 0.27 0.27 0.26 0.26 0.26 0.26 0.26 0.26 0.25 0.21 0.20 0.21 0.22 0.24 0.25 0.26 0.27 0.28 0.28 0.29 0.30 0.30 0.29 0.27 0.27 0.26 0.26
0.36 0.36 0.35 0.35 0.34 0.32 0.32 0.31 0.30 0.29 0.29 0.25 0.22 0.23 0.27 0.31 0.30 0.31 0.30 0.29 0.26 0.26 0.27 0.24 0.22 0.22 0.22 0.29 0.24 0.29 0.33 0.27 0.27 0.29 0.25 0.32 0.33 0.30 0.28 0.29 0.30 0.27 0.30 0.27 0.28 0.28 0.29 0.29 0.27 0.27 0.29 0.27 0.28 0.24 0.20 0.23 0.26 0.26 0.27 0.27 0.28 0.27 0.27 0.26 0.26 0.26 0.25 0.25 0.25 0.24 0.23 0.24 0.24 0.25 0.25 0.25 0.26 0.27 0.29 0.29 0.29 0.29 0.28 0.27 0.27 0.26 0.25
0.36 0.36 0.36 0.36 0.35 0.35 0.33 0.31 0.27 0.26 0.23 0.24 0.24 0.27 0.31 0.33 0.32 0.32 0.32 0.30 0.25 0.24 0.25 0.26 0.26 0.22 0.21 0.22 0.21 0.25 0.33 0.29 0.26 0.28 0.26 0.29 0.34 0.28 0.29 0.26 0.28 0.24 0.25 0.31 0.27 0.27 0.25 0.26 0.29 0.25 0.23 0.27 0.25 0.21 0.22 0.24 0.25 0.27 0.27 0.27 0.29 0.28 0.27 0.27 0.27 0.28 0.27 0.27 0.26 0.25 0.25 0.24 0.24 0.23 0.24 0.25 0.26 0.27 0.27 0.27 0.28 0.28 0.27 0.27 0.26 0.26 0.26
0.34 0.34 0.34 0.35 0.36 0.33 0.34 0.29 0.28 0.25 0.24 0.24 0.25 0.31 0.34 0.35 0.35 0.34 0.34 0.34 0.29 0.25 0.25 0.24 0.24 0.21 0.22 0.20 0.20 0.25 0.33 0.29 0.30 0.30 0.30 0.30 0.29 0.31 0.29 0.27 0.22 0.26 0.31 0.28 0.24 0.26 0.25 0.29 0.27 0.22 0.25 0.22 0.21 0.22 0.23 0.25 0.25 0.26 0.28 0.28 0.29 0.28 0.28 0.28 0.28 0.28 0.28 0.28 0.27 0.26 0.26 0.26 0.25 0.24 0.25 0.25 0.26 0.26 0.27 0.27 0.27 0.28 0.28 0.27 0.26 0.26 0.26
0.34 0.34 0.35 0.35 0.31 0.30 0.26 0.26 0.29 0.27 0.26 0.29 0.32 0.35 0.35 0.35 0.34 0.34 0.31 0.31 0.32 0.32 0.25 0.23 0.22 0.23 0.24 0.24 0.27 0.29 0.31 0.25 0.29 0.27 0.28 0.26 0.25 0.28 0.27 0.25 0.22 0.27 0.27 0.25 0.25 0.24 0.26 0.31 0.25 0.22 0.22 0.20 0.22 0.25 0.26 0.26 0.25 0.26 0.26 0.28 0.29 0.29 0.30 0.30 0.30 0.29 0.27 0.27 0.27 0.27 0.26 0.26 0.26 0.26 0.26 0.26 0.26 0.27 0.27 0.26 0.27 0.27 0.27 0.27 0.27 0.27 0.26
0.33 0.33 0.31 0.28 0.27 0.24 0.24 0.26 0.27 0.31 0.35 0.34 0.34 0.30 0.29 0.29 0.26 0.26 0.27 0.26 0.28 0.30 0.27 0.27 0.24 0.26 0.30 0.27 0.24 0.31 0.30 0.26 0.29 0.25 0.25 0.27 0.25 0.25 0.27 0.24 0.23 0.25 0.20 0.21 0.23 0.28 0.26 0.25 0.22 0.21 0.21 0.24 0.25 0.26 0.26 0.26 0.27 0.28 0.28 0.28 0.29 0.29 0.29 0.29 0.29 0.28 0.27 0.26 0.26 0.27 0.27 0.27 0.27 0.28 0.27 0.27 0.27 0.27 0.27 0.28 0.28 0.29 0.29 0.28 0.27 0.27 0.27
0.32 0.29 0.27 0.27 0.24 0.23 0.24 0.26 0.35 0.35 0.33 0.34 0.30 0.26 0.25 0.28 0.26 0.23 0.24 0.26 0.27 0.25 0.27 0.27 0.25 0.28 0.27 0.26 0.26 0.33 0.29 0.26 0.25 0.25 0.21 0.26 0.24 0.21 0.24 0.20 0.23 0.23 0.19 0.19 0.21 0.27 0.20 0.20 0.21 0.20 0.19 0.22 0.23 0.26 0.27 0.27 0.27 0.28 0.28 0.28 0.28 0.28 0.28 0.28 0.28 0.27 0.27 0.27 0.29 0.30 0.29 0.28 0.28 0.28 0.29 0.29 0.29 0.30 0.30 0.30 0.30 0.30 0.31 0.30 0.29 0.28 0.27
0.27 0.24 0.24 0.24 0.23 0.25 0.29 0.34 0.35 0.32 0.30 0.27 0.27 0.26 0.24 0.27 0.24 0.22 0.26 0.24 0.23 0.26 0.27 0.24 0.28 0.28 0.27 0.24 0.23 0.23 0.31 0.25 0.21 0.20 0.21 0.23 0.29 0.20 0.22 0.21 0.22 0.20 0.16 0.16 0.19 0.23 0.18 0.16 0.17 0.17 0.17 0.21 0.23 0.25 0.25 0.24 0.24 0.25 0.26 0.26 0.26 0.26 0.27 0.27 0.28 0.29 0.29 0.29 0.29 0.30 0.32 0.33 0.33 0.31 0.31 0.31 0.31 0.31 0.31 0.31 0.32 0.32 0.32 0.31 0.30 0.29 0.28
0.24 0.24 0.24 0.23 0.25 0.27 0.29 0.31 0.32 0.29 0.26 0.25 0.24 0.25 0.24 0.22 0.24 0.24 0.23 0.21 0.20 0.21 0.26 0.24 0.26 0.24 0.26 0.26 0.25 0.22 0.28 0.29 0.27 0.28 0.24 0.20 0.26 0.25 0.20 0.17 0.20 0.16 0.14 0.15 0.18 0.18 0.17 0.16 0.15 0.15 0.16 0.20 0.20 0.22 0.23 0.22 0.22 0.22 0.23 0.24 0.25 0.25 0.25 0.26 0.28 0.29 0.29 0.29 0.30 0.30 0.32 0.33 0.34 0.34 0.35 0.34 0.33 0.33 0.33 0.33 0.33 0.33 0.33 0.32 0.31 0.30 0.29
0.24 0.24 0.26 0.29 0.29 0.29 0.29 0.27 0.27 0.25 0.24 0.24 0.22 0.20 0.21 0.22 0.23 0.23 0.22 0.19 0.20 0.22 0.24 0.25 0.23 0.24 0.24 0.27 0.26 0.27 0.26 0.30 0.28 0.26 0.22 0.18 0.24 0.20 0.18 0.18 0.18 0.14 0.12 0.15 0.17 0.15 0.14 0.11 0.11 0.12 0.15 0.15 0.18 0.20 0.21 0.20 0.21 0.22 0.23 0.24 0.24 0.25 0.25 0.26 0.27 0.28 0.29 0.29 0.30 0.30 0.31 0.32 0.33 0.35 0.36 0.36 0.35 0.35 0.35 0.35 0.35 0.34 0.34 0.33 0.32 0.31 0.30
0.30 0.28 0.27 0.25 0.24 0.24 0.25 0.20 0.23 0.23 0.18 0.18 0.18 0.17 0.19 0.18 0.19 0.19 0.20 0.23 0.26 0.24 0.24 0.28 0.27 0.31 0.31 0.31 0.27 0.29 0.26 0.32 0.26 0.24 0.21 0.19 0.25 0.20 0.17 0.16 0.15 0.12 0.14 0.16 0.15 0.12 0.11 0.10 0.10 0.12 0.13 0.14 0.16 0.17 0.18 0.20 0.21 0.22 0.23 0.24 0.24 0.25 0.26 0.26 0.27 0.27 0.28 0.29 0.29 0.30 0.31 0.32 0.32 0.34 0.36 0.37 0.37 0.36 0.37 0.36 0.36 0.35 0.35 0.33 0.32 0.31 0.30
0.28 0.26 0.23 0.23 0.21 0.22 0.23 0.16 0.22 0.20 0.17 0.18 0.16 0.13 0.15 0.16 0.18 0.20 0.19 0.20 0.23 0.23 0.25 0.24 0.25 0.24 0.22 0.27 0.25 0.25 0.26 0.27 0.28 0.24 0.21 0.22 0.19 0.17 0.16 0.14 0.14 0.16 0.17 0.13 0.12 0.10 0.11 0.12 0.12 0.13 0.14 0.15 0.16 0.16 0.17 0.19 0.20 0.21 0.22 0.23 0.24 0.25 0.25 0.26 0.26 0.27 0.27 0.29 0.29 0.30 0.31 0.31 0.32 0.33 0.34 0.36 0.37 0.36 0.36 0.37 0.37 0.36 0.35 0.34 0.33 0.32 0.31
0.24 0.23 0.23 0.21 0.20 0.21 0.20 0.16 0.22 0.18 0.14 0.16 0.18 0.18 0.17 0.16 0.19 0.20 0.20 0.24 0.25 0.23 0.26 0.26 0.25 0.24 0.23 0.26 0.27 0.26 0.26 0.21 0.26 0.21 0.17 0.19 0.17 0.17 0.15 0.14 0.16 0.16 0.13 0.11 0.11 0.11 0.11 0.10 0.13 0.14 0.15 0.15 0.16 0.17 0.19 0.20 0.21 0.21 0.22 0.23 0.23 0.24 0.24 0.25 0.25 0.26 0.27 0.28 0.29 0.30 0.30 0.31 0.31 0.31 0.33 0.34 0.35 0.36 0.37 0.37 0.37 0.36 0.35 0.34 0.33 0.33 0.32
0.24 0.22 0.21 0.18 0.16 0.20 0.19 0.16 0.18 0.17 0.19 0.20 0.20 0.21 0.20 0.21 0.22 0.21 0.24 0.26 0.24 0.25 0.24 0.25 0.25 0.24 0.22 0.25 0.22 0.21 0.23 0.22 0.18 0.18 0.19 0.18 0.15 0.14 0.16 0.18 0.16 0.12 0.12 0.11 0.10 0.09 0.10 0.12 0.14 0.15 0.16 0.17 0.18 0.19 0.20 0.21 0.22 0.23 0.23 0.23 0.24 0.25 0.26 0.27 0.27 0.28 0.29 0.29 0.30 0.31 0.31 0.31 0.31 0.31 0.31 0.32 0.34 0.35 0.36 0.36 0.37 0.36 0.35 0.34 0.34 0.33 0.33
0.24 0.25 0.23 0.21 0.17 0.19 0.21 0.17 0.18 0.19 0.20 0.21 0.23 0.23 0.23 0.23 0.24 0.24 0.26 0.26 0.25 0.26 0.25 0.26 0.25 0.24 0.22 0.22 0.22 0.21 0.20 0.20 0.16 0.18 0.19 0.15 0.14 0.15 0.17 0.14 0.11 0.12 0.11 0.10 0.11 0.12 0.13 0.14 0.16 0.17 0.19 0.20 0.20 0.22 0.23 0.24 0.26 0.26 0.27 0.28 0.28 0.29 0.30 0.30 0.30 0.30 0.31 0.31 0.31 0.31 0.31 0.31 0.31 0.31 0.31 0.31 0.32 0.34 0.34 0.35 0.36 0.36 0.35 0.35 0.35 0.35 0.33
0.21 0.24 0.22 0.17 0.16 0.18 0.17 0.20 0.23 0.23 0.24 0.23 0.24 0.25 0.26 0.26 0.25 0.24 0.26 0.27 0.27 0.26 0.24 0.24 0.21 0.22 0.19 0.21 0.20 0.16 0.17 0.18 0.16 0.16 0.17 0.15 0.16 0.14 0.13 0.13 0.12 0.13 0.14 0.13 0.13 0.15 0.16 0.17 0.19 0.20 0.22 0.24 0.25 0.26 0.27 0.29 0.30 0.32 0.33 0.33 0.33 0.33 0.33 0.32 0.32 0.32 0.31 0.31 0.30 0.30 0.30 0.30 0.31 0.31 0.31 0.31 0.32 0.32 0.33 0.34 0.34 0.34 0.35 0.35 0.35 0.34 0.32
0.23 0.21 0.18 0.18 0.19 0.20 0.19 0.21 0.21 0.20 0.22 0.24 0.25 0.25 0.24 0.23 0.23 0.23 0.24 0.25 0.23 0.22 0.22 0.20 0.18 0.17 0.15 0.17 0.16 0.16 0.15 0.18 0.15 0.15 0.16 0.16 0.14 0.12 0.13 0.12 0.13 0.13 0.16 0.18 0.18 0.20 0.21 0.23 0.26 0.28 0.31 0.32 0.34 0.35 0.36 0.37 0.37 0.37 0.37 0.37 0.36 0.36 0.35 0.34 0.33 0.33 0.32 0.31 0.31 0.30 0.30 0.31 0.32 0.32 0.32 0.32 0.31 0.31 0.32 0.32 0.32 0.32 0.33 0.34 0.34 0.33 0.31
0.17 0.17 0.18 0.17 0.16 0.18 0.19 0.19 0.17 0.16 0.19 0.20 0.20 0.19 0.20 0.19 0.19 0.20 0.22 0.20 0.20 0.20 0.20 0.20 0.21 0.18 0.18 0.18 0.15 0.15 0.15 0.18 0.18 0.17 0.16 0.14 0.16 0.17 0.17 0.15 0.17 0.17 0.20 0.23 0.25 0.27 0.29 0.32 0.35 0.35 0.37 0.38 0.39 0.39 0.39 0.39 0.39 0.39 0.38 0.38 0.37 0.36 0.35 0.34 0.33 0.33 0.33 0.32 0.32 0.32 0.32 0.32 0.32 0.31 0.31 0.30 0.30 0.29 0.28 0.28 0.29 0.29 0.30 0.32 0.32 0.31 0.30
0.18 0.15 0.14 0.17 0.14 0.14 0.15 0.12 0.13 0.13 0.14 0.16 0.17 0.17 0.18 0.18 0.19 0.19 0.23 0.21 0.21 0.20 0.19 0.17 0.19 0.18 0.17 0.17 0.16 0.14 0.17 0.19 0.18 0.17 0.17 0.18 0.20 0.20 0.19 0.19 0.22 0.25 0.27 0.30 0.33 0.35 0.36 0.38 0.39 0.38 0.38 0.38 0.37 0.37 0.37 0.37 0.37 0.36 0.36 0.35 0.35 0.34 0.34 0.34 0.33 0.33 0.33 0.33 0.33 0.32 0.30 0.30 0.30 0.30 0.30 0.29 0.28 0.27 0.26 0.26 0.26 0.27 0.28 0.29 0.30 0.30 0.29
0.16 0.13 0.14 0.17 0.18 0.18 0.18 0.19 0.19 0.18 0.19 0.20 0.20 0.21 0.22 0.20 0.21 0.22 0.24 0.23 0.21 0.19 0.18 0.20 0.20 0.19 0.18 0.17 0.19 0.21 0.22 0.21 0.19 0.20 0.20 0.22 0.25 0.23 0.23 0.25 0.27 0.30 0.33 0.34 0.36 0.38 0.38 0.38 0.37 0.35 0.34 0.32 0.32 0.32 0.32 0.32 0.32 0.32 0.31 0.32 0.32 0.31 0.31 0.30 0.30 0.29 0.28 0.28 0.27 0.27 0.27 0.27 0.28 0.28 0.28 0.27 0.27 0.26 0.25 0.26 0.26 0.26 0.27 0.27 0.28 0.29 0.29
Wind_Speed
14 13 12 12 11 10 8 7 6 6 5 6 7 7 7 7 6 5 4 4 5 5 4 3 2 2 2 1 1 1 1 0 1 1 2 3 3 4 4 5 5 6 7 7 8 8 9 10 11 12 12 14 15 15 16 17 18 20 21 22 24 23 23 25 26 24 22 23 24 24 24 25 28 29 30 30 30 31 31 30 32 33 33 36 35 34 37
14 13 12 11 10 8 7 7 6 6 6 7 7 7 6 6 6 5 3 4 4 3 3 3 2 2 2 1 1 0 0 1 1 2 3 3 3 4 4 5 6 6 7 8 8 9 9 10 11 12 12 13 15 15 16 17 18 19 21 22 23 23 24 26 27 26 24 24 24 25 25 27 29 29 29 30 30 31 31 30 31 31 32 35 36 36 38
13 12 11 10 9 8 7 7 7 7 7 7 6 6 6 6 5 4 3 3 3 3 3 3 3 2 1 1 0 1 1 2 2 2 3 3 4 4 5 5 6 6 7 8 9 10 10 11 11 12 13 13 14 15 16 17 18 19 21 22 22 23 24 26 25 25 25 25 25 26 27 28 28 28 28 29 29 29 30 31 30 31 33 34 35 38 44
12 11 10 9 8 8 7 7 7 7 6 6 6 5 5 5 4 3 2 2 3 3 3 3 3 2 1 1 1 2 1 2 3 3 3 4 4 5 5 5 6 6 7 8 9 10 11 11 11 12 12 13 14 16 16 17 18 19 20 21 22 23 24 24 24 24 25 26 26 27 28 28 29 28 28 28 28 29 30 30 30 33 36 35 34 39 46
12 11 10 9 8 7 6 6 6 6 6 5 5 4 4 4 3 3 2 2 2 2 2 2 2 1 1 0 1 1 2 2 3 4 4 4 4 5 6 6 6 7 7 8 9 10 11 11 11 12 13 14 15 15 16 17 18 19 20 21 22 22 23 24 24 24 25 26 27 28 28 28 29 29 27 26 27 28 28 29 31 34 35 36 38 41 45
11 10 9 8 7 6 6 6 6 5 5 4 4 3 2 3 3 3 2 2 2 1 1 1 1 1 1 1 2 2 2 3 3 4 5 5 5 6 6 6 7 7 8 8 9 10 11 11 11 12 13 14 14 15 16 16 18 19 20 22 22 23 23 24 24 25 26 26 27 27 27 27 27 27 27 26 26 27 27 29 32 33 33 37 42 44 46
11 10 8 7 6 5 5 5 5 4 4 4 4 3 2 3 3 2 2 2 2 1 1 1 1 1 1 2 2 3 2 3 4 5 5 5 6 6 7 7 7 7 8 9 9 10 11 11 11 12 12 13 14 15 16 16 18 19 20 22 23 23 23 24 25 26 26 26 27 27 26 27 26 26 26 26 27 27 29 30 32 33 34 38 43 44 45
9 8 7 6 5 5 5 5 4 4 4 3 3 2 2 3 3 2 2 2 1 1 1 1 1 2 2 3 3 3 3 4 5 5 6 6 6 6 7 7 7 8 8 9 10 11 11 11 11 11 12 13 14 15 16 16 18 19 20 22 23 24 25 25 25 27 27 26 27 27 26 26 26 26 26 26 27 29 30 31 33 35 37 39 41 43 44
8 7 6 5 4 4 4 4 4 4 3 3 2 2 2 2 2 2 2 1 1 1 1 2 2 2 3 3 3 4 4 4 4 5 7 7 6 7 7 6 7 8 9 9 10 11 11 11 11 11 12 13 14 15 16 16 17 19 20 22 23 24 25 25 26 28 27 26 28 29 26 25 25 27 27 26 27 29 31 32 34 35 37 39 41 42 44
7 6 5 4 4 4 4 4 4 4 3 2 1 2 2 2 2 2 1 1 2 2 2 3 3 3 4 4 4 5 5 5 5 6 7 7 7 7 7 6 7 9 9 10 10 11 10 11 12 11 12 13 14 15 16 16 18 19 20 22 23 24 25 26 26 28 27 27 30 30 26 24 25 27 27 26 27 30 32 34 35 35 36 38 39 41 44
6 5 4 4 4 4 4 4 4 3 3 2 2 2 3 2 2 2 1 2 3 3 3 4 4 4 4 4 4 5 5 5 6 7 7 7 7 8 7 7 8 9 9 9 10 10 10 11 11 12 12 13 14 15 15 16 18 19 19 22 23 23 25 26 26 27 28 30 32 29 24 24 28 28 27 26 28 31 34 36 37 36 35 35 38 42 44
5 4 4 3 3 3 3 3 3 3 3 3 2 3 3 3 3 3 3 3 3 4 4 5 5 5 5 4 5 6 5 6 7 8 7 7 7 8 8 8 9 9 9 9 9 9 10 11 11 12 13 13 14 15 15 16 18 19 20 21 22 23 25 25 26 27 28 31 32 28 24 26 28 27 27 28 30 32 34 37 37 35 35 36 39 41 43
4 4 3 3 3 3 3 3 3 4 4 3 3 3 4 4 3 4 4 4 4 5 5 5 6 5 5 5 5 6 6 6 7 8 8 7 7 8 8 9 9 9 9 9 9 9 10 11 12 13 13 13 14 15 15 16 18 19 20 21 22 24 25 25 27 27 27 30 30 26 27 28 26 27 29 30 32 34 36 38 35 32 33 36 38 41 43
4 3 2 2 2 3 3 3 3 4 4 4 4 4 4 5 5 5 5 5 5 6 6 6 6 6 6 5 5 5 6 7 7 8 8 8 8 8 9 9 9 9 9 9 9 10 11 12 13 13 14 14 15 16 16 17 19 20 20 21 22 24 24 26 27 26 27 29 28 26 28 28 26 28 30 31 33 35 36 37 35 32 33 36 38 41 44
2 2 2 2 2 3 3 4 4 4 5 5 5 5 6 6 6 6 6 6 6 6 7 7 7 6 6 6 6 6 7 8 8 9 9 9 9 9 9 10 9 9 9 10 10 11 12 12 13 14 14 14 15 16 16 17 19 21 21 22 22 23 25 25 26 26 27 28 29 28 28 27 28 29 30 31 33 34 34 35 35 34 34 36 38 41 44
2 1 2 2 3 3 4 4 4 5 5 4 5 6 7 7 7 7 7 6 6 7 8 8 7 6 6 7 8 8 8 9 9 9 9 10 9 9 9 10 9 10 10 10 11 11 12 13 13 14 14 14 15 17 17 18 19 20 21 22 22 23 25 25 25 26 26 27 27 26 26 27 29 29 30 32 33 33 33 33 34 35 35 36 39 41 43
1 1 2 2 3 3 4 4 4 5 5 6 6 7 7 8 8 8 7 7 7 8 8 8 7 7 7 8 9 9 9 9 9 10 10 10 9 9 9 10 10 10 11 11 12 12 12 13 14 14 15 15 16 17 18 19 20 20 21 22 22 23 24 25 25 26 26 26 26 26 26 27 28 29 31 32 31 31 32 33 34 35 35 36 39 41 43
1 2 2 3 3 4 4 4 5 5 6 6 6 7 8 8 9 9 9 9 8 8 8 8 8 8 8 9 9 9 9 9 10 10 10 10 10 10 10 10 10 11 11 12 12 13 13 13 14 15 15 15 16 18 18 19 20 21 20 21 22 23 24 25 25 26 26 25 26 27 27 28 28 29 30 31 30 31 32 34 36 37 37 38 39 40 42
2 2 2 3 3 4 5 5 5 6 6 6 7 8 9 9 10 10 9 10 10 9 9 9 9 9 10 10 9 9 10 10 10 10 11 11 11 10 10 11 11 12 12 12 13 13 14 14 15 15 15 15 16 17 18 19 21 21 21 22 23 23 24 24 25 26 26 25 27 28 28 29 29 29 30 30 31 32 33 35 37 38 39 39 40 40 41
3 3 3 3 4 4 4 4 5 6 7 8 9 10 10 10 11 11 11 11 10 10 10 10 10 10 10 11 10 10 11 11 11 11 11 11 11 10 11 12 12 12 12 13 13 14 14 15 15 15 15 16 16 18 19 20 21 21 21 22 23 23 24 25 25 25 26 26 26 28 30 30 28 29 30 30 31 33 36 36 37 38 39 40 39 40 40
5 5 4 4 4 5 5 5 6 7 7 8 9 9 10 11 12 12 12 12 12 11 11 11 11 10 11 11 11 11 12 12 12 12 12 12 11 11 13 13 13 12 13 13 14 14 15 15 15 16 16 17 17 18 19 21 22 21 22 23 23 22 23 25 25 25 25 25 25 27 29 29 27 28 31 31 32 34 36 36 37 37 38 39 39 39 40
6 6 6 6 6 6 6 6 6 7 8 8 9 10 11 11 11 11 12 12 11 11 11 11 11 10 11 11 11 12 12 12 13 13 12 12 12 13 14 14 13 14 14 14 15 15 15 15 16 16 17 17 18 19 20 21 22 22 22 22 23 22 23 25 26 25 25 26 27 28 30 30 28 29 32 33 33 34 35 35 36 37 37 38 39 40 40
6 7 7 7 7 7 7 7 8 8 9 10 10 10 10 10 11 12 12 11 11 10 10 11 11 11 11 11 12 12 12 12 13 13 13 13 13 14 15 15 14 15 15 15 16 16 15 16 17 17 17 18 18 19 20 21 22 22 22 23 23 23 23 25 26 26 27 29 29 30 31 33 32 32 33 33 34 34 34 35 35 36 37 38 39 40 40
7 7 7 8 8 8 8 8 9 9 10 10 10 10 9 9 10 10 11 11 11 11 11 12 12 12 13 13 13 13 13 13 13 13 13 14 14 14 15 15 15 15 15 16 16 16 16 16 17 18 18 18 18 19 21 22 22 22 23 24 24 23 23 24 26 26 28 29 28 28 30 32 32 32 32 33 34 34 34 34 35 36 37 38 39 40 40
7 7 8 8 9 9 9 9 10 10 10 10 9 9 9 9 10 11 11 11 11 11 12 13 13 13 13 13 13 13 13 13 13 14 14 14 15 15 16 16 16 16 16 16 16 16 17 17 17 18 18 18 19 20 21 22 22 22 23 24 24 23 23 25 26 26 27 29 30 30 32 32 32 32 33 33 34 34 33 34 35 36 37 37 38 39 40
8 8 9 9 9 10 10 10 11 11 11 11 11 10 10 10 11 11 10 10 10 10 11 11 12 12 12 12 13 13 13 13 14 14 14 15 15 16 16 16 16 16 16 16 16 17 17 17 17 18 19 19 19 20 21 22 23 23 23 23 23 23 24 25 26 27 29 31 32 32 33 33 32 32 32 33 33 33 33 34 35 35 36 37 38 39 40
9 10 10 10 10 11 11 12 12 12 12 12 11 11 11 11 11 11 10 10 10 10 10 10 10 11 11 11 12 12 13 13 13 14 14 15 15 15 16 16 16 16 16 17 17 17 17 17 18 18 19 19 20 20 21 22 23 23 24 22 21 22 24 25 26 28 29 30 29 30 32 32 32 32 32 32 32 32 33 34 34 35 36 37 37 39 39
10 10 11 11 12 12 13 13 13 13 12 12 11 11 11 10 10 11 10 10 11 10 9 8 9 10 10 10 11 12 12 13 13 14 14 15 15 15 15 16 16 16 16 17 17 17 17 18 18 18 19 19 20 20 21 22 22 23 23 21 20 22 23 23 25 27 29 29 29 29 30 32 33 33 33 32 32 32 33 34 35 35 36 36 37 38 39
11 11 12 13 14 14 15 15 15 14 13 12 12 11 10 10 10 10 10 9 9 9 8 7 8 9 10 10 11 11 12 12 13 13 14 14 15 15 15 16 16 16 16 17 17 17 18 18 18 19 19 19 20 21 21 22 22 23 22 21 21 23 24 24 25 27 29 31 31 30 31 32 33 33 33 32 32 33 34 35 35 35 35 36 37 38 39
12 12 13 14 15 15 16 16 15 14 13 12 12 11 10 10 10 10 9 9 8 8 7 8 9 9 10 10 10 11 12 12 13 13 14 14 15 15 15 16 16 16 16 17 17 18 18 18 18 19 19 19 20 21 21 22 22 23 23 23 24 25 26 26 27 29 30 31 31 31 32 33 33 33 33 33 33 33 34 35 35 35 35 36 37 38 39
13 13 14 15 15 15 15 14 13 12 11 11 11 10 9 9 9 9 9 8 8 8 8 8 8 9 9 10 10 11 12 12 13 13 14 15 15 15 16 16 16 16 17 17 17 17 18 18 18 18 19 19 20 21 21 22 22 24 25 25 25 26 27 28 29 30 31 32 32 32 33 33 33 34 34 34 33 33 34 35 35 35 35 36 37 38 38
13 13 14 15 15 15 15 14 12 11 11 10 9 9 8 8 8 9 8 8 8 8 7 7 8 9 10 10 10 11 11 12 13 14 14 15 15 15 16 16 16 16 16 16 17 17 17 18 18 18 18 19 20 20 21 21 22 24 27 28 27 27 28 29 29 30 31 31 31 32 33 33 33 33 34 34 33 33 34 35 35 35 35 36 37 38 38
13 14 14 14 14 14 14 13 12 11 10 10 9 9 9 9 8 8 8 8 8 8 8 7 8 8 9 10 10 11 11 12 13 14 14 15 15 15 15 16 16 16 16 16 17 17 17 18 18 18 19 19 20 20 21 21 22 26 29 29 28 28 29 30 30 30 31 30 30 31 33 34 33 33 33 33 33 33 34 34 35 35 35 36 37 37 38
13 13 13 13 14 14 13 12 12 11 10 10 10 10 10 10 9 9 9 8 8 8 8 8 7 8 9 9 10 10 11 12 13 14 14 15 15 15 16 16 16 16 16 17 17 18 18 18 18 19 19 19 20 21 21 22 25 28 29 29 29 29 29 30 31 31 31 31 31 32 34 34 34 33 33 33 33 33 34 34 34 35 35 36 37 37 37
12 12 13 13 13 13 13 12 11 11 11 10 10 10 10 10 10 10 10 9 8 8 8 8 8 8 9 10 10 11 12 13 13 14 14 15 15 16 16 16 17 17 17 17 17 18 18 18 18 19 19 19 20 21 21 23 26 28 28 29 29 28 29 30 31 31 31 31 32 33 33 33 33 34 34 33 33 33 34 34 35 35 36 36 37 37 37
12 12 12 13 13 13 12 12 11 11 11 10 10 10 10 10 10 10 10 10 9 8 8 8 9 9 10 11 11 12 13 14 14 15 15 15 16 16 16 16 17 17 17 17 18 18 18 18 18 19 19 19 19 20 21 23 26 27 28 29 30 29 30 31 32 33 33 32 33 33 33 33 34 34 34 34 34 34 34 35 35 35 36 37 37 37 37
12 12 12 12 13 13 12 12 12 11 11 10 10 10 10 10 10 10 10 10 10 10 9 9 9 10 10 11 12 13 14 15 15 15 15 15 16 16 16 16 17 17 17 18 18 17 17 18 19 19 19 19 20 22 23 25 27 28 30 31 31 31 32 33 33 33 34 34 34 34 33 33 34 34 34 34 34 34 34 35 36 36 36 37 37 37 37
11 11 11 12 12 12 12 12 12 11 11 11 10 10 11 11 10 10 11 11 11 11 11 10 10 11 11 12 13 14 14 14 15 15 15 16 16 16 16 17 17 17 18 18 17 17 18 18 19 19 19 20 23 25 26 27 29 30 31 32 32 32 32 33 33 33 33 34 34 34 34 34 34 35 35 35 35 35 36 36 36 36 36 37 37 37 38
11 11 11 12 12 11 11 12 12 11 11 11 10 10 11 11 11 11 12 12 11 12 12 11 11 11 12 12 13 14 15 15 15 15 16 16 16 17 17 17 17 17 18 18 17 18 19 19 19 20 20 20 22 25 27 28 29 30 31 32 32 32 32 32 33 33 33 34 35 35 34 34 35 36 36 36 37 37 37 37 37 37 37 37 37 38 38
11 11 11 11 11 11 11 12 12 11 11 11 11 10 11 11 11 11 12 12 12 12 12 12 12 12 13 13 14 15 15 16 16 16 16 17 17 17 18 18 18 18 18 18 18 19 20 20 20 20 20 20 23 27 28 29 30 32 32 33 33 33 33 33 34 34 35 36 37 37 36 36 37 37 37 37 37 38 38 37 37 38 37 37 37 38 38
11 10 10 11 11 11 11 12 12 11 11 11 11 11 11 11 11 12 12 12 12 12 12 12 13 13 14 14 15 16 16 17 17 17 17 18 18 18 18 18 18 18 18 18 19 20 20 20 20 20 21 23 27 29 30 31 32 33 33 34 34 34 34 35 35 35 36 37 37 38 38 38 38 39 38 38 38 38 38 38 38 38 38 38 38 38 38
11 11 11 11 11 11 11 11 12 11 11 11 12 12 11 11 12 12 12 12 12 13 13 13 14 14 15 16 16 17 17 18 18 18 18 19 18 18 18 19 18 18 18 19 20 20 20 21 20 21 23 27 30 30 31 32 33 34 34 35 35 35 35 35 36 36 37 38 38 39 39 39 39 39 39 39 39 39 39 39 39 39 39 39 38 38 38
11 11 11 11 11 12 11 11 11 11 11 11 12 12 13 13 13 13 13 13 13 14 14 15 15 16 17 17 18 18 18 19 19 19 19 19 19 19 19 19 19 19 20 20 20 20 20 21 21 23 26 29 31 32 33 34 34 35 35 36 36 37 37 37 38 39 39 39 40 41 41 40 40 40 40 39 39 39 39 39 39 40 40 39 39 39 39
12 13 12 12 12 12 12 11 12 12 12 12 13 13 13 14 14 13 14 15 14 15 15 16 16 17 18 19 19 19 19 19 20 20 20 20 20 20 19 19 20 20 21 20 20 20 21 21 23 26 29 31 32 34 35 35 36 36 37 37 38 39 39 40 40 41 41 41 42 42 42 42 42 41 41 40 40 40 40 41 41 40 40 40 39 39 40
13 13 13 12 13 13 12 12 12 13 13 13 13 13 13 15 15 14 15 16 16 16 17 18 18 18 19 20 20 20 20 21 21 21 21 21 20 20 20 20 21 21 21 20 21 21 22 23 25 28 31 33 34 36 37 37 38 38 39 40 41 42 41 42 43 43 43 43 43 43 43 43 42 42 41 41 41 41 42 42 41 41 41 41 40 40 40
13 13 13 13 13 13 13 13 13 14 14 14 14 14 14 15 16 16 17 17 18 18 19 19 19 19 20 21 21 21 21 22 22 21 21 21 21 21 21 21 21 21 20 21 22 22 23 25 27 30 33 35 37 38 39 39 40 41 42 43 45 45 44 44 45 45 45 45 45 45 44 44 44 43 43 43 43 43 43 43 43 42 42 41 41 41 41
14 14 14 14 14 14 14 14 14 15 15 15 16 16 17 18 18 19 19 19 19 20 20 20 21 21 21 21 22 22 22 22 22 22 21 21 22 22 22 21 21 21 21 22 23 24 25 28 31 34 36 38 40 41 42 43 43 44 44 46 47 47 47 47 46 46 46 47 46 46 46 46 45 45 45 45 44 44 44 44 44 43 43 43 43 42 41
15 15 15 14 14 15 15 15 16 17 17 18 18 19 19 19 20 21 20 20 21 21 21 21 21 22 22 22 22 22 23 22 22 22 22 22 22 23 22 22 23 23 23 24 25 27 29 32 36 38 40 41 43 44 45 45 46 46 47 48 48 48 48 48 47 47 47 47 47 47 47 47 47 47 47 46 46 46 46 45 45 44 44 44 43 42 41
15 15 15 15 15 15 16 16 18 19 19 19 19 19 20 20 21 21 21 21 21 21 21 21 22 22 22 22 22 22 22 22 22 22 23 23 23 23 23 24 25 25 25 26 28 31 34 37 40 42 43 44 45 46 46 47 47 48 48 48 49 49 48 48 48 48 48 48 48 48 48 49 49 48 48 48 48 48 47 46 46 45 44 44 43 42 42
15 15 15 15 16 17 17 17 18 19 19 20 20 20 20 20 21 21 20 20 21 21 21 22 22 22 22 23 23 23 23 22 22 23 24 24 24 24 25 26 27 27 28 30 33 37 40 42 43 44 46 47 47 47 47 48 48 48 48 48 49 48 48 48 49 49 50 50 50 51 51 51 50 50 50 50 50 49 48 47 47 46 45 45 44 43 43
15 15 15 15 16 16 17 17 18 19 19 20 20 20 20 20 21 20 20 20 20 20 21 22 22 22 23 23 24 24 24 24 24 24 25 25 25 25 27 28 29 31 34 37 39 41 43 44 45 46 47 48 48 48 48 49 49 49 50 50 50 50 50 50 51 51 52 52 52 52 52 52 52 52 52 51 51 50 49 48 47 47 46 45 45 44 44
15 15 15 16 16 16 17 17 18 19 19 20 20 20 20 20 21 20 20 20 20 21 21 22 22 23 24 24 24 25 25 26 26 26 26 26 26 27 29 31 34 37 39 41 42 43 44 44 45 46 47 48 49 49 50 51 51 51 51 51 51 51 51 51 52 52 53 53 53 53 53 53 53 53 52 51 50 50 50 49 49 47 47 47 46 45 45
Wind_Direction
146 146 146 145 143 143 146 148 150 148 143 141 141 139 136 135 138 135 124 131 135 123 118 127 120 121 139 142 130 143 160 176 277 301 322 334 339 345 346 345 347 347 347 347 346 345 345 347 349 348 348 352 355 355 355 354 355 355 356 357 356 355 354 352 349 350 354 358 358 356 356 356 354 354 354 354 354 355 354 351 351 351 350 351 350 348 349
148 147 145 144 144 145 147 147 145 141 137 136 136 137 136 133 134 130 122 139 149 134 132 145 135 134 158 147 122 174 279 315 302 307 321 325 327 335 340 338 341 348 348 345 344 344 342 342 345 347 347 350 354 354 354 354 355 355 356 356 355 355 354 352 351 353 355 356 355 353 351 348 349 352 353 353 354 354 353 352 353 352 351 352 351 348 348
148 147 146 145 145 145 144 142 141 138 136 135 134 137 141 138 136 130 110 118 140 143 145 149 143 152 160 133 193 264 312 318 313 321 328 327 326 330 335 335 338 346 346 342 343 343 341 341 343 346 345 347 352 353 352 353 354 355 356 355 354 353 354 353 354 355 353 351 348 347 346 345 347 351 352 352 353 354 352 351 351 351 351 351 348 344 345
148 147 147 146 144 142 141 141 142 141 139 138 134 134 145 147 144 142 120 102 114 128 140 138 134 155 165 122 283 283 303 305 311 323 323 322 326 330 333 331 333 338 337 336 338 338 339 341 342 342 342 345 350 351 352 352 352 354 354 354 354 354 353 352 352 350 347 343 340 340 342 342 342 346 350 352 353 353 352 350 349 348 348 347 345 342 342
149 148 146 144 142 140 141 143 145 146 146 146 139 131 141 151 151 156 156 135 118 119 131 128 119 155 207 298 295 294 310 304 307 318 318 318 320 323 328 325 323 328 330 331 333 335 337 339 340 341 341 344 347 348 350 351 350 351 352 352 354 354 352 352 350 346 342 340 337 338 340 340 340 343 348 351 352 352 351 349 347 348 348 346 345 344 342
149 148 145 144 143 144 145 146 147 148 150 152 147 136 137 152 156 160 168 173 167 156 170 150 110 90 323 323 319 312 312 304 306 315 320 318 313 314 320 318 317 322 326 329 332 333 334 334 336 339 340 342 345 347 348 349 349 350 351 352 353 352 351 353 351 346 342 339 337 338 340 341 342 343 345 348 350 350 349 346 345 347 346 342 343 344 343
148 148 147 147 147 148 150 152 152 153 154 154 152 147 145 147 148 152 164 170 171 182 200 172 122 40 336 321 313 309 306 307 313 315 317 317 312 311 313 313 316 321 323 327 330 330 331 331 331 336 339 341 343 345 346 347 348 348 350 352 352 351 351 353 350 346 344 341 341 343 343 342 343 343 344 346 348 347 346 345 344 343 341 339 341 342 343
149 149 150 152 154 156 158 160 161 161 159 157 155 156 162 163 162 163 150 135 142 178 215 232 271 319 317 312 311 312 309 309 314 311 309 314 313 309 310 314 319 322 320 321 325 325 328 330 329 333 339 339 339 341 343 346 348 348 349 350 351 349 350 353 351 347 347 348 348 348 345 343 342 343 345 347 347 346 346 344 343 343 341 342 343 343 345
152 154 156 158 161 164 165 166 167 166 164 163 163 169 176 179 186 180 157 153 260 263 258 274 285 291 297 304 308 309 306 307 315 315 310 312 312 308 309 314 320 323 318 314 318 322 325 329 330 331 334 336 338 340 342 344 346 347 348 348 349 349 349 351 351 347 348 352 350 346 346 346 345 344 345 346 346 347 346 345 344 344 343 344 345 345 348
155 157 159 161 165 169 171 171 171 171 172 177 185 195 198 196 201 202 192 246 272 270 271 281 284 285 293 303 305 308 310 308 313 318 313 311 313 312 310 312 316 318 314 311 317 323 326 329 332 331 332 336 339 340 342 344 344 346 347 347 348 348 347 349 350 346 347 352 349 345 347 350 349 349 347 346 346 346 345 344 344 343 344 345 346 347 348
156 157 159 162 168 174 179 182 184 188 197 213 223 218 217 218 219 232 261 280 273 275 278 279 283 287 292 297 303 310 313 305 306 314 313 309 313 315 311 311 314 316 315 316 323 328 329 332 334 334 335 337 338 339 341 342 343 344 345 346 347 347 346 348 349 345 345 348 347 345 348 350 350 352 352 349 347 346 344 344 343 343 345 346 345 346 348
157 159 161 168 175 183 192 197 203 214 224 233 240 236 230 233 241 257 272 277 274 278 281 280 283 287 284 285 299 307 304 302 307 313 314 312 312 313 312 311 314 316 318 321 324 327 330 334 335 336 338 338 339 340 339 340 342 343 343 345 346 346 345 347 347 345 344 346 348 349 351 350 350 351 351 349 347 345 342 341 342 343 345 345 345 346 348
159 162 166 175 184 191 203 212 221 233 240 244 252 251 242 245 261 273 278 279 276 275 279 283 284 283 279 281 297 306 304 306 311 312 315 317 311 308 311 313 315 318 318 320 323 324 327 331 331 331 333 335 337 338 337 339 342 342 341 343 344 344 345 346 346 345 344 347 350 349 347 347 349 349 348 347 346 344 343 343 345 347 346 346 347 347 348
160 168 177 191 202 209 220 228 235 245 249 250 256 257 254 258 269 278 280 282 282 277 277 284 281 273 272 275 286 302 305 306 309 310 314 317 313 311 314 315 316 317 317 319 322 321 322 327 328 328 330 331 333 334 336 339 342 342 341 342 342 343 345 344 344 345 345 344 344 342 341 345 350 349 348 348 346 346 347 346 348 350 349 348 348 348 348
168 186 204 220 227 232 239 244 250 256 256 254 259 261 263 266 272 278 281 283 286 279 274 278 274 262 264 271 275 292 302 302 304 308 310 312 315 316 316 316 315 316 316 318 320 320 321 323 325 327 328 328 330 333 334 337 340 342 342 342 343 342 342 342 342 344 345 343 342 343 343 346 349 349 348 348 346 347 348 346 347 351 351 349 348 347 348
183 215 237 250 252 252 256 257 257 257 254 257 263 265 267 270 272 278 282 282 286 284 279 280 276 264 267 277 278 286 295 296 299 304 305 306 308 311 314 314 314 314 316 318 319 320 321 320 321 324 325 325 328 331 333 334 337 340 341 341 343 342 341 342 342 342 343 343 343 344 343 344 347 347 347 346 347 349 349 346 347 351 350 348 348 347 348
215 250 260 271 273 272 271 266 261 262 264 267 272 271 272 274 273 276 280 282 287 290 284 279 276 271 278 286 283 284 290 293 295 299 301 302 303 305 309 310 311 311 311 314 318 318 319 320 321 321 322 324 327 328 331 333 334 336 338 338 340 342 341 340 340 340 342 341 341 341 339 340 345 346 345 346 349 350 348 346 348 350 349 347 348 348 348
279 285 283 288 287 284 282 276 273 275 275 273 274 275 276 278 276 275 278 281 285 288 283 277 276 277 282 286 284 283 287 290 293 297 300 301 300 300 301 304 307 309 308 310 314 315 315 317 318 319 321 324 326 327 330 332 332 334 337 337 338 339 339 339 339 339 340 339 338 338 339 341 344 345 346 348 350 349 346 346 347 348 348 348 348 347 348
354 329 316 309 302 297 293 286 280 281 279 277 279 281 281 282 278 275 277 281 284 284 279 276 278 280 283 285 285 284 286 289 292 294 297 298 297 297 301 303 304 307 308 308 311 312 313 314 316 318 319 321 324 326 328 329 330 333 335 335 336 337 338 338 339 339 339 339 336 336 339 343 345 346 346 347 346 345 344 344 345 345 345 346 347 347 347
21 7 353 339 329 320 311 300 294 292 288 285 284 282 282 284 281 276 275 277 280 281 277 275 277 281 283 286 286 286 287 289 290 291 294 296 293 294 301 303 301 304 307 307 308 310 311 312 315 316 316 319 322 324 325 327 328 331 333 333 334 336 336 336 337 338 339 339 338 339 341 343 344 345 346 345 342 342 343 343 343 343 343 344 346 346 347
25 17 8 358 349 339 328 317 309 303 296 292 289 287 286 286 283 278 275 273 275 278 276 273 276 281 284 286 287 287 288 289 289 290 294 295 289 290 300 302 298 299 303 305 307 310 309 311 314 314 315 319 320 321 323 325 327 330 332 332 332 333 334 335 336 338 338 338 338 340 342 342 341 341 342 341 340 341 342 342 342 343 343 344 345 346 346
24 19 11 3 356 348 340 331 321 312 304 298 295 292 289 287 283 281 280 278 278 277 273 270 274 279 282 284 287 288 288 288 289 290 293 293 288 290 299 301 296 297 301 303 307 309 308 309 312 312 313 316 317 318 321 323 325 329 331 330 329 330 332 334 334 334 335 335 334 336 338 339 337 336 336 337 338 340 341 340 341 342 342 343 344 345 346
20 15 9 2 357 350 344 339 330 322 314 306 301 297 292 288 284 282 282 282 281 277 272 270 273 277 280 283 286 288 287 288 290 291 292 293 291 291 296 298 296 298 299 300 303 306 306 307 310 311 311 313 315 318 320 320 322 326 326 326 327 329 332 333 333 334 333 331 329 329 330 330 331 332 334 336 338 339 340 340 340 340 341 342 343 344 345
15 10 5 0 357 353 348 343 336 330 323 317 313 307 301 295 290 287 287 285 280 276 275 275 274 275 277 280 283 286 287 288 290 290 291 293 294 295 297 296 296 298 299 298 301 304 305 306 309 310 310 311 314 316 318 318 321 324 325 326 327 328 329 329 332 334 334 333 334 334 331 331 333 335 335 336 336 337 339 339 339 340 341 342 342 343 344
8 3 359 357 355 353 350 347 343 339 335 331 327 319 310 302 296 293 292 287 280 277 278 277 275 274 275 277 280 284 286 288 289 291 292 294 295 297 298 297 296 297 299 299 299 301 304 306 308 308 308 309 311 314 317 319 321 323 324 325 327 329 328 327 329 329 329 331 334 333 330 331 332 333 333 334 335 336 337 338 339 340 341 341 342 343 344
3 358 355 353 352 350 348 345 342 338 335 332 328 321 314 308 303 298 295 291 287 285 283 280 276 273 273 275 279 282 284 287 289 291 294 296 297 298 299 298 297 297 299 300 300 300 303 306 307 307 308 309 311 313 316 319 321 321 322 324 328 329 328 328 329 328 328 329 330 330 330 331 332 331 332 334 335 336 337 338 338 339 340 341 342 343 343
1 357 355 353 351 349 346 344 341 338 335 333 331 324 316 311 307 301 296 294 294 293 289 284 279 275 274 277 280 282 285 288 290 292 295 297 298 299 299 298 298 298 298 299 300 301 303 305 305 305 307 309 311 313 315 318 320 320 321 324 326 325 326 328 330 329 330 331 332 333 334 335 335 334 334 335 336 337 337 337 338 338 339 340 341 342 343
359 356 352 348 346 343 339 337 335 334 334 333 332 328 322 315 311 305 298 294 294 293 289 284 281 278 278 281 284 286 288 291 292 294 297 299 300 300 300 300 300 299 299 299 300 301 302 303 304 305 307 309 310 312 315 318 319 319 320 319 317 318 321 325 327 327 328 330 331 332 332 332 333 335 335 335 336 336 336 336 337 337 338 340 341 341 342
355 350 345 341 338 334 329 326 324 323 323 323 322 322 321 320 320 316 309 302 299 296 291 287 286 287 286 286 287 288 290 293 296 298 300 302 303 302 302 302 301 300 300 301 302 302 302 303 303 304 306 308 309 312 315 316 317 319 319 316 313 313 315 317 319 321 324 327 328 329 329 330 332 334 334 335 335 335 335 335 336 337 338 339 340 340 341
352 349 346 343 339 334 329 325 322 320 320 320 320 319 318 319 321 320 316 309 305 300 296 293 292 292 290 287 288 291 292 294 297 301 303 305 306 305 304 304 303 302 302 303 303 303 304 304 304 304 305 306 308 312 314 316 317 318 317 315 314 314 314 315 316 319 322 325 328 328 328 330 332 333 333 333 333 334 334 335 335 336 337 338 339 339 340
355 353 352 349 346 343 340 337 335 333 330 329 328 325 321 320 322 323 321 315 309 305 304 302 299 295 294 293 292 294 295 295 297 301 304 306 307 307 306 305 305 304 303 304 304 305 306 305 306 306 306 306 308 312 313 315 318 318 316 316 317 317 317 318 318 318 320 323 326 327 328 328 330 331 331 331 331 332 333 334 335 336 337 337 338 338 339
355 355 354 353 352 353 354 354 354 352 348 347 346 342 337 332 330 329 328 323 317 312 310 310 306 301 300 300 298 298 300 300 301 303 305 307 309 309 308 307 307 306 305 306 306 307 307 307 307 308 307 307 310 313 314 316 315 313 312 315 319 320 319 320 320 321 321 323 325 326 326 325 326 327 329 331 332 332 332 333 334 335 336 336 337 337 338
354 354 355 356 357 359 2 5 7 7 6 6 7 3 357 350 343 338 335 331 328 324 320 318 315 310 308 306 303 304 306 306 306 308 309 310 311 311 310 310 309 308 307 307 308 309 309 309 309 309 309 309 311 313 314 313 308 306 310 314 318 319 319 320 320 321 321 322 322 322 323 325 327 328 330 332 332 331 331 333 334 335 335 335 335 336 337
352 354 355 356 358 360 2 5 8 9 9 8 7 5 3 360 355 349 343 337 334 335 334 331 325 319 317 315 312 311 313 313 312 314 314 313 313 313 312 312 312 310 309 309 309 310 310 309 309 309 310 311 311 312 314 311 305 306 311 315 317 319 320 320 320 320 321 322 321 320 322 326 328 328 328 330 330 331 332 333 333 333 333 333 334 335 336
352 353 354 355 357 358 360 1 2 3 3 3 3 1 1 0 360 359 355 348 340 336 338 338 335 329 326 324 320 319 319 319 317 316 316 315 315 315 314 313 313 312 312 311 311 311 310 310 310 310 312 313 312 311 311 310 309 312 316 317 318 321 321 320 320 322 323 323 322 322 323 325 324 325 326 327 328 329 330 331 331 331 331 331 333 334 335
352 353 354 355 356 358 360 1 1 1 1 1 0 358 356 356 358 0 2 1 355 347 341 338 336 333 329 325 322 321 322 321 320 318 316 316 316 316 316 315 315 315 315 314 312 312 312 312 312 313 315 315 311 307 307 310 313 316 318 318 319 321 320 320 322 323 324 324 323 322 323 322 321 322 324 325 326 327 328 328 329 329 329 329 331 333 334
352 353 354 355 357 359 1 1 1 1 0 358 357 357 358 358 357 359 1 2 1 357 350 341 335 332 328 325 324 324 324 323 322 321 319 319 319 318 318 318 318 318 317 316 315 316 315 314 314 315 315 312 307 306 308 311 313 315 316 317 319 319 318 319 321 322 322 323 322 321 321 321 320 321 322 322 323 324 325 325 327 328 328 329 331 333 333
351 353 355 357 359 360 359 358 358 359 358 356 356 358 359 359 359 359 357 355 354 353 350 346 340 335 332 330 329 329 329 328 327 326 325 324 323 322 321 321 320 320 319 318 318 318 318 317 318 318 315 310 306 307 310 312 313 314 315 316 318 319 318 319 320 319 319 320 319 319 320 319 319 319 320 320 321 322 323 324 326 327 328 329 330 331 332
349 351 354 357 358 358 356 356 356 356 355 355 356 356 355 357 358 356 353 352 352 351 351 350 347 343 340 338 336 335 335 333 331 330 329 327 325 324 324 323 323 323 322 320 321 321 320 320 321 321 319 315 312 313 315 316 316 316 316 317 318 318 318 318 318 316 316 317 317 318 319 319 318 319 320 321 321 322 322 324 325 325 326 327 328 329 329
346 348 350 352 353 353 353 353 353 354 355 355 355 354 355 357 358 355 353 354 354 351 351 352 349 346 344 342 340 338 337 335 332 331 330 328 326 325 325 324 324 323 321 321 323 324 322 321 322 322 321 318 316 318 321 321 319 318 318 318 318 318 318 317 316 315 315 316 316 317 318 317 318 319 320 320 321 321 322 322 323 323 324 324 325 325 327
342 343 344 345 346 347 348 350 352 353 353 354 354 354 353 352 351 350 352 352 349 345 346 347 345 342 341 340 337 336 336 335 333 332 330 329 327 326 325 325 325 324 321 320 323 324 323 321 322 322 320 317 317 320 323 322 320 319 318 317 317 317 316 316 316 315 315 315 316 316 316 316 316 317 318 318 319 320 320 321 321 321 321 321 322 323 325
338 338 338 339 340 341 342 345 347 348 348 348 350 349 346 344 344 344 344 343 340 338 339 339 337 336 337 336 334 333 333 333 332 331 330 329 328 327 326 326 326 324 321 321 324 325 323 321 321 320 318 317 319 321 321 320 321 321 320 318 318 317 316 316 316 315 313 313 314 315 315 314 314 315 315 316 317 317 317 318 318 319 319 319 320 321 323
332 332 333 333 333 335 336 337 340 342 343 344 345 344 342 341 342 340 336 334 334 334 334 333 332 332 332 332 331 331 330 329 330 330 329 328 327 328 328 327 325 323 322 324 325 325 322 321 320 318 318 319 321 321 319 318 319 320 320 320 319 317 316 315 315 314 313 312 312 313 313 313 313 313 313 313 313 314 314 314 315 316 317 318 319 319 321
325 326 327 326 326 328 328 328 331 336 337 337 338 338 337 336 336 334 332 330 329 329 329 329 329 328 328 329 329 328 328 328 329 328 327 327 327 327 326 324 323 323 323 323 323 322 321 319 316 314 315 318 321 321 320 319 319 319 320 320 319 318 316 316 315 315 314 313 312 312 312 312 312 312 312 311 310 310 311 312 313 315 316 317 317 318 319
320 321 323 322 321 323 323 322 324 328 329 328 328 329 329 329 328 327 327 328 327 327 326 326 326 326 326 326 326 326 326 327 327 326 326 326 326 324 322 321 322 323 322 321 320 320 320 318 316 314 315 317 319 320 320 320 320 319 319 319 319 318 317 317 316 315 315 314 313 312 312 312 311 311 310 309 309 309 310 311 312 313 314 316 316 316 317
315 316 318 317 315 317 318 318 319 322 321 319 319 320 320 320 321 322 323 324 324 323 323 323 324 324 324 324 324 324 324 325 325 325 325 325 323 321 321 322 322 321 320 319 317 317 317 317 316 317 317 318 319 320 320 320 320 319 319 318 318 318 318 317 316 316 315 314 313 313 313 312 311 310 309 309 309 309 309 310 311 311 312 313 314 314 315
309 310 313 312 311 313 314 312 313 315 315 314 314 315 316 316 317 318 319 319 320 320 320 321 322 321 321 321 322 321 322 323 323 323 323 323 321 321 322 322 320 318 317 315 315 315 316 316 316 317 318 319 320 320 320 320 320 319 318 318 318 318 318 317 316 316 315 315 314 314 313 312 311 310 310 309 309 309 308 309 309 309 309 310 311 312 313
305 306 308 308 307 308 308 309 310 312 312 312 313 313 314 314 314 315 315 316 317 317 317 318 319 319 320 320 320 320 321 321 321 321 322 322 320 320 320 319 317 316 316 314 314 315 316 316 316 318 319 319 319 319 319 319 319 319 318 318 318 318 318 318 317 317 316 316 315 315 314 313 312 311 310 309 309 308 308 307 307 308 308 308 310 310 310
306 306 306 307 307 306 306 308 311 311 311 312 313 313 313 313 312 312 314 314 315 315 315 316 318 318 319 319 320 320 319 318 319 320 322 320 318 317 317 316 315 315 315 314 313 314 314 316 317 318 318 318 318 318 318 318 318 318 318 318 318 318 318 318 318 317 317 317 316 315 315 314 313 312 311 309 309 308 307 306 307 307 306 306 307 307 307
309 307 306 307 308 308 308 311 312 311 312 313 314 313 313 313 313 313 313 314 314 315 316 317 318 319 319 320 320 319 317 316 318 320 319 318 316 315 315 314 314 314 314 313 313 314 315 316 317 317 317 317 318 318 318 318 318 319 318 318 318 318 318 318 318 317 317 317 316 315 315 314 313 312 311 310 310 310 308 307 306 305 304 304 304 304 304
311 310 309 309 308 308 309 312 312 311 311 313 313 313 314 314 314 314 314 314 315 317 317 316 317 319 319 318 318 317 316 316 318 318 317 316 315 315 314 313 313 313 313 313 314 315 316 317 317 317 317 317 318 318 318 318 318 318 318 318 318 318 317 317 317 317 316 316 316 315 314 314 313 312 312 311 311 310 309 308 305 304 303 303 302 301 302
311 311 311 311 310 310 310 311 312 311 311 312 313 314 314 315 315 315 314 314 314 315 315 315 317 318 317 315 315 316 316 316 316 316 316 314 313 312 311 310 311 312 312 313 314 315 315 316 317 317 317 317 318 318 318 318 318 318 318 318 317 317 317 317 317 317 316 316 316 315 314 314 313 313 313 312 311 310 309 308 306 304 303 303 301 300 300